EW8974 Weather Reports


Display with metric or nautical units.
time (UTC)temp
F
wind
direction
speed
MPH
gust
MPH
rain 1hr
in
rain 24hr
in
rain mn
in
humidity
%
barometer
mb
20260509011545 72 240 0.0 3.0 0.00 0.06 0.06 82 1003.3
20260509011044 73 250 0.0 3.0 0.00 0.06 0.06 82 1003.2
20260509010544 73 185 0.0 5.0 0.00 0.06 0.06 81 1003.1
20260509010044 73 234 0.0 5.0 0.00 0.06 0.06 81 1003.1
20260509005543 73 186 0.0 4.0 0.00 0.06 0.06 80 1002.8
20260509005043 74 237 1.0 4.0 0.00 0.06 0.06 79 1002.7
20260509004544 74 244 2.0 4.0 0.00 0.06 0.06 78 1002.7
20260509004043 75 195 0.0 2.0 0.00 0.06 0.06 78 1002.6
20260509003543 75 265 0.0 0.0 0.00 0.06 0.06 77 1002.7
20260509003043 76 266 0.0 1.0 0.00 0.06 0.06 75 1002.7
20260509002543 77 266 0.0 1.0 0.00 0.06 0.06 73 1002.8
20260509002042 78 266 0.0 1.0 0.00 0.06 0.06 71 1002.7
20260509001542 79 266 0.0 0.0 0.00 0.06 0.06 72 1002.8
20260509001042 78 266 0.0 1.0 0.00 0.06 0.06 72 1002.7
20260509000542 78 266 0.0 1.0 0.00 0.06 0.06 72 1002.8
20260509000042 78 53 0.0 1.0 0.00 0.06 0.06 73 1002.8
20260508235540 77 53 0.0 1.0 0.00 0.06 0.06 74 1002.8
20260508235039 77 271 0.0 5.0 0.00 0.06 0.06 74 1002.9
20260508234541 77 271 0.0 6.0 0.00 0.06 0.06 75 1002.8
20260508234041 77 235 2.0 6.0 0.00 0.06 0.06 72 1002.7
20260508233539 78 224 2.0 6.0 0.00 0.06 0.06 70 1002.8
20260508233039 79 245 0.0 3.0 0.00 0.06 0.06 72 1002.8
20260508232538 79 240 0.0 2.0 0.00 0.06 0.06 71 1002.9
20260508232038 78 239 0.0 4.0 0.00 0.06 0.06 72 1002.9
20260508231538 78 229 1.0 4.0 0.00 0.06 0.06 73 1002.8
20260508231038 77 250 1.0 7.0 0.00 0.06 0.06 73 1002.9
20260508230537 77 245 2.0 7.0 0.00 0.06 0.06 72 1002.9
20260508230042 77 176 0.0 5.0 0.00 0.06 0.06 73 1002.8
20260508225537 77 236 2.0 7.0 0.00 0.06 0.06 73 1002.8
20260508225037 77 216 2.0 7.0 0.00 0.06 0.06 72 1002.9
20260508224537 78 224 2.0 6.0 0.00 0.06 0.06 73 1002.8
20260508224035 77 188 0.0 8.0 0.00 0.06 0.06 76 1003.0
20260508223537 76 159 1.0 8.0 0.00 0.06 0.06 76 1002.9
20260508223035 76 160 3.0 7.0 0.00 0.06 0.06 74 1003.0
20260508222534 76 216 2.0 7.0 0.00 0.06 0.06 73 1003.0
20260508222034 77 163 1.0 7.0 0.00 0.06 0.06 73 1003.2
20260508221533 78 210 3.0 6.0 0.00 0.06 0.06 71 1003.2
20260508221034 78 246 0.0 2.0 0.00 0.06 0.06 73 1003.3
20260508220532 77 229 0.0 2.0 0.00 0.06 0.06 76 1003.3
20260508220030 75 29 0.0 1.0 0.00 0.06 0.06 76 1003.4
20260508215531 75 45 0.0 1.0 0.00 0.06 0.06 77 1003.7
20260508215028 75 325 0.0 1.0 0.00 0.06 0.06 79 1003.8
20260508214530 75 48 0.0 2.0 0.00 0.06 0.06 80 1003.9
20260508214026 74 48 0.0 3.0 0.05 0.06 0.06 77 1003.9
20260508213526 74 346 0.0 3.0 0.06 0.06 0.06 78 1003.7
20260508213036 74 234 0.0 3.0 0.06 0.06 0.06 81 1003.7
20260508212525 72 247 0.0 4.0 0.06 0.06 0.06 82 1003.5
20260508212024 71 30 1.0 4.0 0.06 0.06 0.06 84 1003.4
20260508211535 70 306 1.0 4.0 0.06 0.06 0.06 84 1003.4
20260508211024 70 186 1.0 4.0 0.06 0.06 0.06 86 1003.4
20260508210523 69 177 1.0 5.0 0.06 0.06 0.06 86 1003.5
20260508210026 69 261 0.0 3.0 0.06 0.06 0.06 88 1003.4
20260508205522 68 256 0.0 1.0 0.06 0.06 0.06 87 1003.4
20260508205020 68 256 0.0 1.0 0.06 0.06 0.06 85 1003.8
20260508204519 69 79 0.0 2.0 0.06 0.06 0.06 83 1004.3
20260508204017 69 134 0.0 6.0 0.00 0.00 0.00 79 1005.1
20260508203517 69 290 0.0 8.0 0.00 0.00 0.00 77 1005.3
20260508203017 70 240 2.0 8.0 0.00 0.00 0.00 76 1005.1
20260508202517 70 191 1.0 6.0 0.00 0.00 0.00 75 1004.9
20260508202016 70 204 1.0 6.0 0.00 0.00 0.00 74 1005.1
20260508201516 71 231 2.0 7.0 0.00 0.00 0.00 73 1005.4
20260508201016 71 201 3.0 8.0 0.00 0.00 0.00 72 1005.5
20260508200516 72 266 2.0 6.0 0.00 0.00 0.00 70 1005.6
20260508200018 73 333 1.0 6.0 0.00 0.00 0.00 69 1005.6
20260508195515 73 198 2.0 5.0 0.00 0.00 0.00 69 1005.5
20260508195014 73 205 1.0 4.0 0.00 0.00 0.00 71 1005.2
20260508194527 71 179 0.0 7.0 0.00 0.00 0.00 72 1005.1
20260508194013 71 153 4.0 7.0 0.00 0.00 0.00 70 1005.3
20260508193513 71 257 2.0 6.0 0.00 0.00 0.00 71 1005.2
20260508193013 71 182 2.0 6.0 0.00 0.00 0.00 71 1005.4
20260508192518 71 158 1.0 7.0 0.00 0.00 0.00 71 1005.4
20260508192012 71 266 0.0 7.0 0.00 0.00 0.00 71 1005.4
20260508191511 71 191 0.0 7.0 0.00 0.00 0.00 72 1005.6
20260508191011 71 219 1.0 7.0 0.00 0.00 0.00 70 1005.7
20260508190513 71 226 0.0 5.0 0.00 0.00 0.00 69 1005.8
20260508190013 71 203 1.0 6.0 0.00 0.00 0.00 70 1005.8
20260508185509 71 236 0.0 6.0 0.00 0.00 0.00 71 1005.7
20260508185012 71 274 1.0 8.0 0.00 0.00 0.00 71 1005.9
20260508184509 71 240 3.0 8.0 0.00 0.00 0.00 70 1005.9
20260508184008 71 228 2.0 6.0 0.00 0.00 0.00 70 1005.9
20260508183508 71 245 2.0 6.0 0.00 0.00 0.00 69 1006.0
20260508183011 71 243 2.0 6.0 0.00 0.00 0.00 68 1006.2
20260508182507 72 250 3.0 6.0 0.00 0.00 0.00 67 1006.4
20260508182006 73 168 2.0 4.0 0.00 0.00 0.00 67 1006.5
20260508181509 73 28 0.0 6.0 0.00 0.00 0.00 65 1006.6
20260508181006 74 221 2.0 6.0 0.00 0.00 0.00 63 1006.6
20260508180506 74 275 0.0 2.0 0.00 0.00 0.00 64 1006.5
20260508180012 74 42 0.0 3.0 0.00 0.00 0.00 64 1006.5
20260508175505 74 165 0.0 3.0 0.00 0.00 0.00 64 1006.4
20260508175010 74 192 0.0 2.0 0.00 0.00 0.00 66 1006.6
20260508174504 73 122 0.0 1.0 0.00 0.00 0.00 69 1006.5
20260508174003 72 331 0.0 1.0 0.00 0.00 0.00 67 1006.6
20260508173501 73 255 0.0 2.0 0.00 0.00 0.00 66 1006.9
20260508173003 73 255 0.0 2.0 0.00 0.00 0.00 67 1006.9
20260508172501 73 42 0.0 2.0 0.00 0.00 0.00 65 1007.1
20260508172001 74 239 0.0 1.0 0.00 0.00 0.00 65 1007.1
20260508171501 74 239 0.0 2.0 0.00 0.00 0.00 67 1007.1
20260508171101 73 360 0.0 2.0 0.00 0.00 0.00 66 1007.0
20260508170559 73 338 0.0 2.0 0.00 0.00 0.00 65 1007.2
20260508165558 74 29 0.0 4.0 0.00 0.00 0.00 65 1007.3
20260508165058 74 326 0.0 4.0 0.00 0.00 0.00 64 1007.3
20260508164600 73 27 0.0 2.0 0.00 0.00 0.00 69 1007.3
20260508164056 73 205 0.0 3.0 0.00 0.00 0.00 68 1007.3
20260508163556 72 295 0.0 3.0 0.00 0.00 0.00 68 1007.5
20260508163053 72 144 0.0 3.0 0.00 0.00 0.00 69 1007.7
20260508162553 72 269 0.0 2.0 0.00 0.00 0.00 70 1007.8
20260508162054 71 266 0.0 1.0 0.00 0.00 0.00 71 1007.9
20260508161549 71 264 0.0 1.0 0.00 0.00 0.00 72 1008.2
20260508161049 71 330 0.0 1.0 0.00 0.00 0.00 70 1008.3
20260508160549 70 330 0.0 1.0 0.00 0.00 0.00 71 1008.5
20260508160046 70 330 0.0 2.0 0.00 0.00 0.00 72 1008.5
20260508155545 69 330 0.0 2.0 0.00 0.00 0.00 75 1008.4
20260508155043 68 238 0.0 1.0 0.00 0.00 0.00 74 1008.6
20260508154604 68 238 0.0 1.0 0.00 0.00 0.00 75 1008.7
20260508154043 68 238 0.0 1.0 0.00 0.00 0.00 75 1008.8
20260508153540 67 238 0.0 1.0 0.00 0.00 0.00 75 1008.9
20260508153040 67 238 0.0 0.0 0.00 0.00 0.00 76 1008.8
20260508152538 67 238 0.0 1.0 0.00 0.00 0.00 76 1009.0
20260508152037 66 238 0.0 1.0 0.00 0.00 0.00 76 1008.9
20260508151539 66 238 0.0 1.0 0.00 0.00 0.00 76 1008.9
20260508151038 66 238 0.0 1.0 0.00 0.00 0.00 76 1008.9
20260508150538 66 46 0.0 1.0 0.00 0.00 0.00 76 1008.9
20260508150038 66 50 0.0 1.0 0.00 0.00 0.00 77 1008.9
20260508145537 66 256 0.0 1.0 0.00 0.00 0.00 77 1008.8
20260508145038 66 243 0.0 1.0 0.00 0.00 0.00 77 1008.8
20260508144535 66 243 0.0 1.0 0.00 0.00 0.00 77 1008.8
20260508144034 66 243 0.0 1.0 0.00 0.00 0.00 77 1008.9
20260508143536 66 243 0.0 1.0 0.00 0.00 0.00 78 1008.8
20260508143033 65 243 0.0 1.0 0.00 0.00 0.00 79 1008.8
20260508142531 65 243 0.0 2.0 0.00 0.00 0.00 79 1008.7
20260508142030 65 4 0.0 2.0 0.00 0.00 0.00 79 1008.7
20260508141533 65 270 0.0 1.0 0.00 0.00 0.00 81 1008.6
20260508141028 64 270 0.0 2.0 0.00 0.00 0.00 82 1008.7
20260508140528 63 79 0.0 2.0 0.00 0.00 0.00 83 1008.7
20260508140025 63 14 0.0 2.0 0.00 0.00 0.00 84 1008.8
20260508135523 62 274 0.0 1.0 0.00 0.00 0.00 85 1008.8
20260508135022 61 274 0.0 2.0 0.00 0.00 0.00 85 1008.8
20260508134521 61 92 0.0 1.0 0.00 0.00 0.00 87 1008.9
20260508134019 60 92 0.0 1.0 0.00 0.00 0.00 88 1008.9
20260508133518 60 92 0.0 1.0 0.00 0.00 0.00 88 1008.9
20260508133024 60 329 0.0 1.0 0.00 0.00 0.00 89 1009.0
20260508132516 59 329 0.0 1.0 0.00 0.00 0.00 90 1009.2
20260508132014 59 330 0.0 1.0 0.00 0.00 0.00 91 1009.3
20260508131514 58 105 0.0 1.0 0.00 0.00 0.00 92 1009.3
20260508131013 58 104 0.0 1.0 0.00 0.00 0.00 92 1009.3
20260508130512 58 105 0.0 1.0 0.00 0.00 0.00 93 1009.2
20260508130014 57 105 0.0 1.0 0.00 0.00 0.00 93 1009.3
20260508125509 57 105 0.0 1.0 0.00 0.00 0.00 93 1009.3
20260508125009 57 105 0.0 1.0 0.00 0.00 0.00 93 1009.1
20260508124511 57 134 0.0 0.0 0.00 0.00 0.00 93 1009.2
20260508124009 56 134 0.0 0.0 0.00 0.00 0.00 93 1009.2
20260508123510 56 134 0.0 1.0 0.00 0.00 0.00 93 1009.2
20260508123015 56 236 0.0 1.0 0.00 0.00 0.00 93 1009.1
20260508122508 55 236 0.0 1.0 0.00 0.00 0.00 93 1009.0
20260508122008 55 236 0.0 1.0 0.00 0.00 0.00 93 1008.9
20260508121513 55 236 0.0 0.0 0.00 0.00 0.00 93 1008.9
20260508121007 55 236 0.0 2.0 0.00 0.00 0.00 93 1008.8
20260508120507 55 236 0.0 2.0 0.00 0.00 0.00 93 1008.8
20260508120007 55 233 0.0 0.0 0.00 0.00 0.00 93 1008.7
20260508115507 55 233 0.0 1.0 0.00 0.00 0.00 93 1008.8
20260508115007 55 233 0.0 1.0 0.00 0.00 0.00 93 1008.9
20260508114507 55 233 0.0 1.0 0.00 0.00 0.00 93 1009.0
20260508114006 55 238 0.0 1.0 0.00 0.00 0.00 93 1009.0
20260508113506 55 238 0.0 1.0 0.00 0.00 0.00 93 1008.9
20260508113006 56 238 0.0 1.0 0.00 0.00 0.00 93 1008.9
20260508112505 56 238 0.0 1.0 0.00 0.00 0.00 93 1008.9
20260508112005 56 238 0.0 1.0 0.00 0.00 0.00 93 1008.9
20260508111506 56 238 0.0 1.0 0.00 0.00 0.00 93 1008.8
20260508111008 56 238 0.0 0.0 0.00 0.00 0.00 93 1008.8
20260508110505 56 238 0.0 1.0 0.00 0.00 0.00 93 1008.9
20260508110004 56 238 0.0 1.0 0.00 0.00 0.00 93 1009.0
20260508105505 56 238 0.0 1.0 0.00 0.00 0.00 94 1009.0
20260508105004 55 238 0.0 1.0 0.00 0.00 0.00 93 1008.7
20260508104504 55 238 0.0 1.0 0.00 0.00 0.00 93 1008.7
20260508104004 55 238 0.0 0.0 0.00 0.00 0.00 93 1008.5
20260508103504 56 238 0.0 1.0 0.00 0.00 0.00 93 1008.5
20260508103006 56 238 0.0 3.0 0.00 0.00 0.00 94 1008.5
20260508102503 56 238 0.0 3.0 0.00 0.00 0.00 94 1008.7
20260508102003 56 220 1.0 3.0 0.00 0.00 0.00 94 1008.6
20260508101503 55 273 0.0 1.0 0.00 0.00 0.00 94 1008.6
20260508101002 55 273 0.0 1.0 0.00 0.00 0.00 94 1008.5
20260508100503 55 280 0.0 0.0 0.00 0.00 0.00 93 1008.4
20260508100002 55 280 0.0 0.0 0.00 0.00 0.00 93 1008.5
20260508095502 55 280 0.0 0.0 0.00 0.00 0.00 93 1008.2
20260508095001 55 280 0.0 0.0 0.00 0.00 0.00 93 1008.3
20260508094501 55 280 0.0 0.0 0.00 0.00 0.00 93 1008.5
20260508094100 55 280 0.0 0.0 0.00 0.00 0.00 93 1008.5
20260508093601 55 280 0.0 0.0 0.00 0.00 0.00 93 1008.6
20260508093100 55 280 0.0 0.0 0.00 0.00 0.00 93 1008.7
20260508092600 55 280 0.0 0.0 0.00 0.00 0.00 93 1008.8
20260508092059 56 280 0.0 0.0 0.00 0.00 0.00 93 1008.8
20260508091606 56 280 0.0 0.0 0.00 0.00 0.00 93 1008.7
20260508091100 56 280 0.0 0.0 0.00 0.00 0.00 93 1008.6
20260508090600 56 280 0.0 0.0 0.00 0.00 0.00 93 1008.6
20260508090115 56 280 0.0 0.0 0.00 0.00 0.00 93 1008.6
20260508085558 56 280 0.0 0.0 0.00 0.00 0.00 93 1008.6
20260508085058 56 280 0.0 0.0 0.00 0.00 0.00 93 1008.6
20260508084558 56 280 0.0 0.0 0.00 0.00 0.00 92 1008.6
20260508084058 56 280 0.0 0.0 0.00 0.00 0.00 92 1008.7
20260508083556 56 280 0.0 1.0 0.00 0.00 0.00 93 1008.7
20260508083056 56 280 0.0 1.0 0.00 0.00 0.00 93 1008.8
20260508082555 57 280 0.0 0.0 0.00 0.00 0.00 93 1008.9
20260508082056 57 280 0.0 0.0 0.00 0.00 0.00 93 1009.2
20260508081605 57 280 0.0 0.0 0.00 0.00 0.00 93 1009.4
20260508081054 57 280 0.0 0.0 0.00 0.00 0.00 93 1009.4
20260508080553 57 280 0.0 0.0 0.00 0.00 0.00 93 1009.8
20260508080058 57 280 0.0 0.0 0.00 0.00 0.00 93 1009.9
20260508075556 57 280 0.0 1.0 0.00 0.00 0.00 93 1010.0
20260508075054 57 280 0.0 0.0 0.00 0.00 0.00 93 1010.0
20260508074551 56 280 0.0 0.0 0.00 0.00 0.00 93 1009.9
20260508074055 56 280 0.0 1.0 0.00 0.00 0.00 94 1009.8
20260508073550 56 280 0.0 1.0 0.00 0.00 0.00 94 1009.9
20260508073106 55 280 0.0 0.0 0.00 0.00 0.00 93 1009.6
20260508072549 55 280 0.0 0.0 0.00 0.00 0.00 93 1009.4
20260508072049 55 280 0.0 1.0 0.00 0.00 0.00 93 1009.2
20260508071550 55 280 0.0 1.0 0.00 0.00 0.00 93 1009.2
20260508071048 54 280 0.0 0.0 0.00 0.00 0.00 93 1009.1
20260508070547 54 280 0.0 0.0 0.00 0.00 0.00 92 1009.1
20260508070049 54 280 0.0 0.0 0.00 0.00 0.00 92 1009.2
20260508065546 54 280 0.0 0.0 0.00 0.00 0.00 92 1009.1
20260508065045 54 280 0.0 0.0 0.00 0.00 0.00 92 1009.4
20260508064547 54 280 0.0 0.0 0.00 0.00 0.00 92 1009.6
20260508064044 54 280 0.0 0.0 0.00 0.00 0.00 92 1009.6
20260508063645 54 280 0.0 0.0 0.00 0.00 0.00 92 1009.7
20260508063044 55 280 0.0 0.0 0.00 0.00 0.00 92 1009.9
20260508062541 55 280 0.0 0.0 0.00 0.00 0.00 92 1009.9
20260508062041 55 280 0.0 0.0 0.00 0.00 0.00 92 1010.0
20260508061544 55 280 0.0 0.0 0.00 0.00 0.00 92 1010.1
20260508061041 55 280 0.0 0.0 0.00 0.00 0.00 92 1010.1
20260508060539 55 280 0.0 0.0 0.00 0.00 0.00 92 1010.2
20260508060058 55 280 0.0 0.0 0.00 0.00 0.00 92 1010.1
20260508055538 56 280 0.0 0.0 0.00 0.00 0.00 92 1010.3
20260508055038 56 280 0.0 0.0 0.00 0.00 0.00 92 1010.4
20260508054539 56 280 0.0 0.0 0.00 0.00 0.00 92 1010.2
20260508054037 56 280 0.0 0.0 0.00 0.00 0.00 92 1010.2
20260508053537 56 280 0.0 0.0 0.00 0.00 0.00 92 1010.3
20260508053038 55 280 0.0 0.0 0.00 0.00 0.00 92 1010.2
20260508052539 55 280 0.0 0.0 0.00 0.00 0.00 91 1010.2
20260508052036 56 280 0.0 0.0 0.00 0.00 0.00 92 1010.4
20260508051541 56 280 0.0 0.0 0.00 0.00 0.00 91 1010.1
20260508051035 56 280 0.0 0.0 0.00 0.00 0.00 91 1010.1
20260508050535 56 280 0.0 0.0 0.00 0.00 0.00 91 1010.1
20260508050036 56 280 0.0 0.0 0.00 0.00 0.00 90 1010.1
20260508045533 56 280 0.0 0.0 0.00 0.00 0.00 91 1010.1
20260508045033 56 280 0.0 0.0 0.00 0.00 0.00 91 1010.1
20260508044536 56 280 0.0 0.0 0.00 0.00 0.00 90 1010.2
20260508044032 56 280 0.0 0.0 0.00 0.00 0.00 90 1010.3
20260508043534 56 280 0.0 0.0 0.00 0.00 0.00 90 1010.2
20260508043033 56 280 0.0 0.0 0.00 0.00 0.00 89 1010.2
20260508042532 57 280 0.0 0.0 0.00 0.00 0.00 89 1010.0
20260508042031 57 280 0.0 0.0 0.00 0.00 0.00 88 1010.0
20260508041532 57 280 0.0 0.0 0.00 0.00 0.00 88 1010.0
20260508041032 57 280 0.0 0.0 0.00 0.00 0.00 88 1010.1
20260508040532 58 280 0.0 0.0 0.00 0.00 0.00 88 1010.1
20260508040037 58 280 0.0 0.0 0.00 0.00 0.00 88 1010.1
20260508035534 58 280 0.0 0.0 0.00 0.00 0.00 88 1010.1
20260508035031 58 280 0.0 0.0 0.00 0.00 0.00 88 1010.2
20260508034542 58 280 0.0 0.0 0.00 0.00 0.00 88 1009.9
20260508034032 58 280 0.0 0.0 0.00 0.00 0.00 89 1009.9
20260508033533 58 280 0.0 0.0 0.00 0.00 0.00 89 1009.8
20260508033031 58 280 0.0 1.0 0.00 0.00 0.00 89 1009.6
20260508032531 58 280 0.0 1.0 0.00 0.00 0.00 89 1009.5
20260508032033 58 280 0.0 0.0 0.00 0.00 0.00 88 1009.2
20260508031536 58 280 0.0 0.0 0.00 0.00 0.00 88 1009.3
20260508031030 58 280 0.0 0.0 0.00 0.00 0.00 88 1009.4
20260508030530 58 280 0.0 0.0 0.00 0.00 0.00 88 1009.3
20260508030030 58 280 0.0 0.0 0.00 0.00 0.00 88 1009.2
20260508025529 58 280 0.0 0.0 0.00 0.00 0.00 88 1009.2
20260508025029 58 280 0.0 0.0 0.00 0.00 0.00 87 1009.3
20260508024551 58 280 0.0 0.0 0.00 0.00 0.00 87 1009.3
20260508024029 58 280 0.0 0.0 0.00 0.00 0.00 87 1009.0
20260508023529 58 280 0.0 0.0 0.00 0.00 0.00 86 1009.2
20260508023029 58 280 0.0 0.0 0.00 0.00 0.00 85 1009.4
20260508022528 59 280 0.0 0.0 0.00 0.00 0.00 85 1009.4
20260508022028 59 280 0.0 0.0 0.00 0.00 0.00 85 1009.3
20260508021528 59 280 0.0 0.0 0.00 0.00 0.00 85 1009.4
20260508021027 59 280 0.0 0.0 0.00 0.00 0.00 84 1009.6
20260508020527 59 280 0.0 0.0 0.00 0.00 0.00 84 1009.5
20260508020027 60 280 0.0 0.0 0.00 0.00 0.00 83 1009.6
20260508015526 60 280 0.0 0.0 0.00 0.00 0.00 83 1009.4
20260508015026 60 280 0.0 0.0 0.00 0.00 0.00 83 1009.3
20260508014526 60 280 0.0 0.0 0.00 0.00 0.00 82 1009.1
20260508014026 60 280 0.0 0.0 0.00 0.00 0.00 82 1009.1
20260508013528 60 280 0.0 0.0 0.00 0.00 0.00 81 1009.3
20260508013029 61 280 0.0 0.0 0.00 0.00 0.00 79 1009.2
20260508012525 61 280 0.0 0.0 0.00 0.00 0.00 79 1009.2
20260508012025 61 280 0.0 0.0 0.00 0.00 0.00 77 1009.1